TimePDT,TemperatureF,Dew PointF,Humidity,Sea Level PressureIn,VisibilityMPH,Wind Direction,Wind SpeedMPH,Gust SpeedMPH,PrecipitationIn,Events,Conditions,WindDirDegrees,DateUTC
12:56 AM,75.9,33.1,21,29.84,10.0,NW,9.2,-,N/A,,Clear,310,2013-06-11 07:56:00
1:56 AM,75.9,34.0,22,29.84,10.0,WNW,15.0,-,N/A,,Clear,300,2013-06-11 08:56:00
2:56 AM,73.0,36.0,26,29.83,10.0,NNW,11.5,-,N/A,,Clear,340,2013-06-11 09:56:00
3:56 AM,73.9,36.0,25,29.83,10.0,NW,13.8,-,N/A,,Clear,310,2013-06-11 10:56:00
4:56 AM,71.1,35.1,27,29.84,10.0,Calm,Calm,-,N/A,,Clear,0,2013-06-11 11:56:00
5:56 AM,70.0,35.1,28,29.87,10.0,NW,6.9,-,N/A,,Clear,320,2013-06-11 12:56:00
6:56 AM,73.0,33.1,23,29.88,10.0,NNW,3.5,-,N/A,,Clear,340,2013-06-11 13:56:00
7:56 AM,79.0,34.0,20,29.89,10.0,Calm,Calm,-,N/A,,Clear,0,2013-06-11 14:56:00
8:56 AM,82.9,33.1,17,29.89,10.0,ENE,3.5,-,N/A,,Clear,70,2013-06-11 15:56:00
9:56 AM,88.0,32.0,14,29.88,10.0,North,3.5,-,N/A,,Clear,360,2013-06-11 16:56:00
10:56 AM,91.9,30.9,11,29.89,10.0,NNW,5.8,-,N/A,,Partly Cloudy,340,2013-06-11 17:56:00
11:56 AM,95.0,27.0,9,29.87,10.0,Calm,Calm,-,N/A,,Partly Cloudy,0,2013-06-11 18:56:00
12:56 PM,97.0,28.0,9,29.86,10.0,Variable,3.5,-,N/A,,Clear,0,2013-06-11 19:56:00
1:56 PM,98.1,27.0,8,29.84,10.0,SSE,6.9,-,N/A,,Clear,150,2013-06-11 20:56:00
2:56 PM,100.0,27.0,8,29.82,10.0,East,5.8,-,N/A,,Clear,80,2013-06-11 21:56:00
3:56 PM,100.9,26.1,7,29.79,10.0,East,8.1,-,N/A,,Clear,100,2013-06-11 22:56:00
4:56 PM,100.9,24.1,7,29.79,10.0,SSW,5.8,-,N/A,,Clear,200,2013-06-11 23:56:00
5:56 PM,100.0,23.0,6,29.78,10.0,SSW,13.8,-,N/A,,Clear,200,2013-06-12 00:56:00
6:56 PM,98.1,25.0,7,29.77,10.0,SW,18.4,-,N/A,,Clear,230,2013-06-12 01:56:00
7:56 PM,93.9,25.0,8,29.79,10.0,SW,13.8,-,N/A,,Clear,230,2013-06-12 02:56:00
8:56 PM,91.0,28.9,11,29.80,10.0,SW,16.1,-,N/A,,Clear,230,2013-06-12 03:56:00
9:56 PM,88.0,30.9,13,29.82,10.0,SW,15.0,-,N/A,,Clear,230,2013-06-12 04:56:00
10:56 PM,86.0,30.9,14,29.83,10.0,Variable,3.5,-,N/A,,Clear,0,2013-06-12 05:56:00
11:56 PM,84.9,30.9,14,29.84,10.0,West,9.2,-,N/A,,Clear,280,2013-06-12 06:56:00